www.pogodaiklimat.ru

Погода и климат >> Архив погоды >> Испания >> Бильбао


ПОГОДА в Бильбао

  • Прогноз погоды в Бильбао
  • Монитор погоды в Бильбао

АРХИВ ПОГОДЫ в Бильбао

Время (UTC), дата Ветер
(напр.,м/с)
 
Видим.   Явления Облачность Т
(С)
Тd
(С)
f
(%)
Тe
(С)
Тes
(С)
Комфортность P
(гПа)
Po
(гПа)
Тmin
(С)
Tmax
(С)
R
(мм)
R24
(мм)
S
(см)
01 12.08 СВ 2 н/о н/о +16.4 +14.4 88 +16 +16 1021.3 1016.7
02 12.08 В 1 н/о н/о +15.7 +14.2 91 +16 +16 1021.2 1016.5
03 12.08 штиль 0 15 км 6/4 1500 м
[Cu Sc Ac trans]
+15.0 +13.7 92 +15 +15 1021.1 1016.4
04 12.08 штиль 0 н/о н/о +14.4 +13.4 94 +14 +14 1021.2 1016.5
05 12.08 З 2 н/о н/о +16.3 +12.3 77 +16 +16 1021.3 1016.7
06 12.08 З 2 20 км 6/5 1000 м
[Cu Sc Ac trans]
+16.7 +12.2 75 +17 +17 1021.8 1017.2 +14.2
07 12.08 СЗ 1 н/о н/о +17.5 +13.3 76 +19 +19 1022.4 1017.8
08 12.08 З 5 н/о н/о +18.4 +12.3 68 +19 +19 1023.0 1018.4
09 12.08 СЗ 5 25 км 8/8 1000 м
[Cu Sc]
+19.5 +12.9 66 +21 +22 комфорт 1023.4 1018.8
10 12.08 СЗ 7 н/о н/о +21.0 +12.4 58 +23 +23 комфорт 1023.4 1018.8
11 12.08 СЗ 8 н/о н/о +21.1 +12.2 57 +23 +23 комфорт 1023.7 1019.1
12 12.08 СЗ 7 25 км 8/6 1000 м
[Cu Sc Ac trans Ci fib]
+20.2 +12.8 62 +22 +23 комфорт 1024.1 1019.5
13 12.08 СЗ 8 н/о н/о +21.1 +13.9 63 +24 +24 комфорт 1024.1 1019.5
14 12.08 З 7 н/о н/о +19.3 +12.4 64 +20 +20 1024.4 1019.8
15 12.08 С 4 25 км в посл. час дождь 9/8 600 м
[Cu Sc Ac As]
+18.8 +14.7 77 +20 +21 1024.1 1019.5 0.0
16 12.08 З 6 н/о н/о +20.3 +13.8 66 +22 +22 комфорт 1023.9 1019.3
17 12.08 СЗ 4 н/о н/о +19.9 +13.7 67 +22 +22 комфорт 1024.0 1019.4
18 12.08 СЗ 4 25 км 8/6 600 м
[Cu Sc Ac As]
+19.4 +11.9 62 +21 +21 комфорт 1024.3 1019.7 +21.7
19 12.08 СЗ 1 н/о н/о +18.6 +11.7 64 +20 +20 1024.5 1019.9
20 12.08 В 2 н/о н/о +17.1 +12.7 75 +17 +17 1025.0 1020.4
21 12.08 В 1 15 км 6/4 1000 м
[Cu Sc Ac As Cs]
+16.5 +13.0 80 +17 +17 1025.6 1020.9
22 12.08 В 1 н/о н/о +15.8 +13.1 84 +16 +16 1025.8 1021.1
23 12.08 В 2 н/о н/о +15.6 +13.1 85 +16 +16 1025.7 1021.0
00 13.08 В 1 н/о н/о +15.5 +13.5 88 +16 +16 1025.4 1020.7
01 13.08 СВ 2 н/о в посл. час осадки н/о +15.1 +13.8 92 +15 +15 1024.8 1020.1
02 13.08 В 3 н/о н/о +14.6 +13.5 93 +14 +14 1024.2 1019.5
03 13.08 В 2 15 км {дождь} 10/0
[Cs]
+13.9 +12.8 93 +14 +14 1023.9 1019.2 0.0
04 13.08 В 2 н/о н/о +13.9 +12.8 93 +14 +14 1023.8 1019.1
05 13.08 В 2 н/о н/о +13.5 +12.6 94 +13 +13 1023.8 1019.1
06 13.08 В 2 20 км 9/4 1000 м
[Cu Sc Ac trans]
+13.7 +12.8 94 +13 +13 1024.2 1019.5 +13.2
07 13.08 В 1 н/о н/о +16.0 +13.8 87 +17 +17 1024.3 1019.6
08 13.08 В 1 н/о н/о +18.4 +13.8 75 +20 +20 1024.2 1019.6
09 13.08 З 2 25 км 8/6 1000 м
[Cu Sc Ci fib]
+19.1 +13.1 68 +21 +25 комфорт 1024.2 1019.6
10 13.08 СВ 3 н/о н/о +21.3 +13.5 61 +24 +24 комфорт 1024.0 1019.4
11 13.08 С 4 н/о н/о +20.4 +12.7 61 +23 +23 комфорт 1023.9 1019.3
12 13.08 С 2 25 км 8/5 1000 м
[Cu Sc Ci fib]
+22.3 +12.1 52 +25 +32 комфорт 1023.1 1018.5
13 13.08 СЗ 3 н/о н/о +22.7 +12.5 53 +25 +25 комфорт 1022.9 1018.3
14 13.08 С 4 н/о н/о +22.9 +12.6 52 +26 +26 жарко 1022.7 1018.1
15 13.08 С 4 40 км 6/6 1000 м
[Cu Sc]
+22.8 +12.1 51 +25 +28 комфорт 1022.6 1018.0
16 13.08 СВ 4 н/о н/о +21.9 +12.3 54 +24 +24 комфорт 1022.3 1017.7
17 13.08 В 4 н/о н/о +22.3 +12.6 54 +25 +25 комфорт 1022.0 1017.4
18 13.08 СВ 4 40 км 3/1 1000 м
[Cu hum Ci fib]
+21.5 +12.4 56 +24 +24 комфорт 1021.9 1017.3 +23.4
19 13.08 СВ 3 н/о н/о +20.0 +12.7 63 +22 +22 комфорт 1022.4 1017.8
20 13.08 В 3 н/о н/о +18.2 +12.9 71 +19 +19 1022.5 1017.9
21 13.08 В 1 40 км ясно +17.8 +12.9 73 +19 +19 1022.9 1018.3
22 13.08 В 1 н/о н/о +16.3 +12.9 80 +17 +17 1022.9 1018.2
23 13.08 В 3 н/о н/о +14.9 +12.8 87 +14 +14 1022.6 1017.9
00 14.08 ЮВ 2 н/о н/о +14.3 +12.3 88 +14 +14 1022.4 1017.7
01 14.08 В 2 н/о н/о +13.6 +12.1 91 +13 +13 1021.9 1017.2
02 14.08 ЮВ 3 н/о н/о +13.3 +12.0 92 +12 +12 1020.8 1016.1
03 14.08 В 3 15 км 4/0
[Ac trans]
+13.3 +11.9 91 +12 +12 1020.6 1015.9
04 14.08 В 2 н/о н/о +13.1 +11.7 91 +12 +12 1020.5 1015.8
05 14.08 В 2 н/о н/о +12.9 +11.3 90 +12 +12 1020.4 1015.7
06 14.08 В 1 25 км 4/0
[Ac trans Ci fib]
+13.4 +11.6 89 +14 +14 1020.6 1015.9 +12.8
07 14.08 ЮВ 3 н/о н/о +15.8 +12.4 80 +15 +15 1020.8 1016.1
08 14.08 В 3 н/о н/о +18.4 +12.8 70 +19 +19 1020.6 1016.0
09 14.08 В 2 25 км 8/0
[Ac trans Ci fib]
+21.3 +12.9 59 +24 +29 комфорт 1020.5 1015.9
10 14.08 СВ 1 н/о н/о +24.5 +12.4 47 +26 +26 жарко 1020.3 1015.8
11 14.08 С 2 н/о н/о +26.2 +11.8 41 +28 +28 жарко 1020.1 1015.6
12 14.08 З 4 25 км 3/0
[Ac trans Ci fib]
+26.7 +13.1 43 +28 +38 жарко 1020.1 1015.6
13 14.08 СЗ 6 н/о н/о +25.9 +13.0 45 +28 +28 жарко 1020.2 1015.7
14 14.08 СЗ 6 н/о н/о +26.0 +13.9 47 +28 +28 жарко 1020.5 1016.0
15 14.08 СЗ 5 40 км 8/0
[Ac As]
+24.4 +10.9 43 +26 +28 жарко 1020.5 1016.0
16 14.08 СЗ 5 н/о н/о +23.5 +15.4 60 +26 +26 жарко 1020.6 1016.0
17 14.08 З 5 н/о н/о +23.5 +17.0 67 +27 +27 душно 1020.4 1015.8
18 14.08 СЗ 4 40 км 9/9 600 м
[Sc]
+22.5 +17.2 72 +27 +27 душно 1020.4 1015.8 +27.3
19 14.08 СЗ 5 н/о н/о +22.0 +17.4 75 +26 +26 душно 1020.8 1016.2
20 14.08 СЗ 3 н/о н/о +21.7 +17.9 79 +26 +26 душно 1021.3 1016.7
21 14.08 СЗ 2 15 км в посл. час дождь 10/10 600 м
[Cu Sc]
+20.7 +18.8 89 +25 +25 комфорт 1021.7 1017.1
22 14.08 штиль 0 н/о н/о +20.3 +19.3 94 +24 +24 комфорт 1021.6 1017.0
23 14.08 Ю 1 н/о осадки н/о +20.0 +19.5 97 +25 +25 комфорт 1021.6 1017.0
00 15.08 штиль 0 н/о осадки н/о +19.8 +19.3 97 +23 +23 комфорт 1021.7 1017.1 1
01 15.08 В 1 н/о в посл. час осадки н/о +19.6 +19.3 98 +23 +23 комфорт 1021.2 1016.6
02 15.08 штиль 0 н/о осадки н/о +19.7 +19.4 98 +22 +22 комфорт 1021.3 1016.7
03 15.08 СЗ 5 5000 м слаб. морось 10/10 200 м
[Sc]
+19.2 +18.4 95 +21 +21 комфорт 1021.8 1017.1 2
04 15.08 СЗ 4 н/о в посл. час осадки н/о +18.4 +17.6 95 +19 +19 1022.1 1017.5
05 15.08 З 3 н/о н/о +18.4 +17.1 92 +19 +19 1022.7 1018.1
06 15.08 З 1 15 км 9/9 300 м
[Sc]
+18.3 +17.1 93 +20 +20 1023.1 1018.5 +18.2 0.2
07 15.08 ЮЗ 2 н/о н/о +18.4 +16.9 91 +20 +20 1023.6 1019.0
08 15.08 З 2 н/о н/о +19.3 +16.6 84 +22 +22 комфорт 1023.7 1019.1
09 15.08 З 4 20 км 10/10 300 м
[Sc]
+19.9 +16.9 83 +23 +23 комфорт 1024.0 1019.4
10 15.08 З 3 н/о н/о +21.1 +16.4 75 +25 +25 комфорт 1023.8 1019.2
11 15.08 С 3 н/о н/о +21.7 +16.8 74 +26 +26 душно 1023.8 1019.2
12 15.08 СЗ 3 30 км 9/9 600 м
[Sc]
+22.4 +16.2 68 +27 +28 душно 1023.6 1019.0
13 15.08 С 4 35 км 8/8 600 м
[Sc]
+22.8 +15.6 64 +27 +29 душно 1023.5 1018.9
14 15.08 С 4 н/о н/о +22.8 +14.8 61 +27 +27 душно 1023.4 1018.8
15 15.08 СЗ 4 40 км 8/8 1000 м
[Sc]
+22.6 +14.6 61 +26 +28 жарко 1023.3 1018.7
16 15.08 С 4 н/о н/о +22.2 +14.6 62 +26 +26 душно 1023.2 1018.6
17 15.08 С 3 н/о н/о +22.2 +14.1 60 +25 +25 комфорт 1023.1 1018.5
18 15.08 СВ 3 40 км 4/3 1000 м
[Sc Ci fib]
+21.9 +13.7 60 +25 +25 комфорт 1022.7 1018.1 +23.8
19 15.08 С 2 н/о н/о +20.6 +14.1 66 +24 +24 комфорт 1022.5 1017.9
20 15.08 Ю 2 н/о н/о +18.5 +14.4 77 +20 +20 1023.2 1018.6
21 15.08 ЮВ 1 4000 м 1/1 1000 м
[Sc]
+17.1 +14.2 83 +18 +18 1023.5 1018.9
22 15.08 В 2 н/о н/о +15.9 +14.1 89 +16 +16 1023.3 1018.6
23 15.08 В 2 н/о н/о +15.1 +13.8 92 +15 +15 1022.5 1017.8
00 16.08 В 2 н/о н/о +14.4 +13.2 92 +14 +14 1022.3 1017.6
01 16.08 В 2 н/о н/о +14.0 +13.1 94 +14 +14 1021.6 1016.9
02 16.08 В 2 н/о н/о +13.4 +12.6 95 +13 +13 1020.9 1016.2
03 16.08 СВ 1 30 км ясно +13.6 +13.0 96 +14 +14 1020.9 1016.2
04 16.08 В 2 н/о н/о +12.9 +12.2 96 +12 +12 1020.3 1015.6
05 16.08 ЮВ 1 н/о н/о +12.6 +12.0 96 +12 +12 1020.0 1015.3
06 16.08 В 1 40 км ясно +12.9 +12.1 95 +13 +13 1020.2 1015.5 +12.2
07 16.08 В 2 н/о н/о +15.4 +13.5 88 +15 +15 1020.0 1015.3
08 16.08 ЮВ 3 н/о н/о +18.3 +14.2 77 +19 +19 1019.2 1014.6
09 16.08 В 4 40 км 1/0
[Ci fib]
+21.3 +14.2 64 +24 +30 комфорт 1018.3 1013.7
10 16.08 СВ 2 н/о н/о +23.5 +15.0 59 +26 +26 жарко 1018.0 1013.5
11 16.08 СЗ 2 н/о н/о +25.5 +14.9 52 +28 +28 жарко 1017.4 1012.9
12 16.08 З 5 40 км 1/0
[Ci fib]
+27.1 +13.8 44 +29 +39 жарко 1017.3 1012.8
13 16.08 З 5 н/о н/о +26.0 +13.1 45 +28 +28 жарко 1017.1 1012.6
14 16.08 З 4 н/о н/о +27.1 +12.3 40 +29 +29 жарко 1016.8 1012.3
15 16.08 З 4 40 км 1/0
[Ci fib]
+27.5 +11.8 38 +29 +35 жарко 1016.3 1011.9
16 16.08 СЗ 5 н/о н/о +26.5 +13.0 43 +28 +28 жарко 1016.4 1011.9
17 16.08 З 4 н/о н/о +25.6 +11.3 41 +27 +27 жарко 1016.7 1012.2
18 16.08 З 4 40 км 4/0
[Ci sp]
+23.7 +13.0 51 +26 +26 жарко 1016.8 1012.3 +27.8
19 16.08 СЗ 2 н/о н/о +21.8 +13.2 58 +24 +24 комфорт 1017.3 1012.7
20 16.08 З 1 н/о н/о +20.8 +14.6 68 +25 +25 комфорт 1018.0 1013.4
21 16.08 В 2 30 км 4/0
[Ci sp]
+18.9 +14.6 76 +21 +21 комфорт 1018.3 1013.6
22 16.08 ЮВ 2 н/о н/о +17.6 +14.1 80 +18 +18 1018.1 1013.5
23 16.08 В 2 н/о н/о +16.9 +14.4 85 +17 +17 1018.2 1013.6
00 17.08 ЮВ 1 н/о н/о +16.5 +14.3 87 +17 +17 1017.9 1013.3
01 17.08 В 2 н/о н/о +15.9 +13.8 87 +16 +16 1017.5 1012.9
02 17.08 В 2 н/о н/о +15.9 +13.9 88 +16 +16 1017.1 1012.5
03 17.08 В 2 15 км ясно +15.3 +13.5 89 +15 +15 1016.5 1011.9
04 17.08 В 2 н/о н/о +14.9 +13.3 90 +15 +15 1016.2 1011.6
05 17.08 В 1 н/о н/о +14.7 +13.1 90 +15 +15 1016.1 1011.5
06 17.08 ЮВ 1 40 км 1/0
[Ci sp]
+15.1 +13.3 89 +16 +16 1016.0 1011.4 +14.5
07 17.08 В 2 н/о н/о +17.5 +14.1 80 +18 +18 1016.4 1011.8
08 17.08 В 2 н/о н/о +20.7 +14.2 66 +24 +24 комфорт 1016.2 1011.6
09 17.08 В 2 40 км 1/0
[Ci fib]
+24.3 +14.5 54 +27 +35 жарко 1016.0 1011.5
10 17.08 ЮВ 1 н/о н/о +27.0 +14.6 47 +30 +30 душно 1015.6 1011.2
11 17.08 СЗ 1 н/о н/о +29.3 +14.3 40 +31 +31 жарко 1015.0 1010.6
12 17.08 СЗ 6 40 км ясно +29.1 +15.8 45 +32 +38 душно 1014.7 1010.3
13 17.08 СЗ 5 4000 м ясно +28.5 +16.2 47 +32 +41 душно 1014.5 1010.1
14 17.08 СЗ 4 н/о н/о +28.6 +15.3 44 +31 +31 жарко 1014.1 1009.7
15 17.08 С 5 40 км ясно +27.9 +15.5 47 +31 +36 душно 1013.7 1009.3
16 17.08 С 4 н/о н/о +27.8 +16.4 50 +31 +31 душно 1013.2 1008.8
17 17.08 СЗ 4 н/о н/о +27.3 +16.7 52 +31 +31 душно 1012.9 1008.5
18 17.08 СЗ 4 н/о ясно +26.0 +17.2 58 +30 +30 душно 1012.9 1008.5 +30.0
19 17.08 СЗ 2 н/о н/о +24.2 +17.3 65 +28 +28 душно 1013.2 1008.7
20 17.08 З 1 н/о н/о +22.9 +17.4 71 +28 +28 душно 1013.4 1008.9
21 17.08 В 1 15 км ясно +20.9 +17.1 79 +26 +26 душно 1013.2 1008.6
22 17.08 В 1 н/о н/о +20.0 +17.2 84 +24 +24 комфорт 1012.6 1008.0
23 17.08 штиль 0 н/о н/о +19.0 +16.8 87 +20 +20 1012.1 1007.5
00 18.08 В 3 н/о н/о +18.0 +16.3 90 +18 +18 1011.7 1007.1
01 18.08 В 1 н/о н/о +17.7 +15.9 89 +19 +19 1011.2 1006.6
02 18.08 ЮВ 3 н/о н/о +17.2 +15.7 91 +17 +17 1010.3 1005.7
03 18.08 В 3 15 км ясно +17.8 +15.2 85 +18 +18 1009.7 1005.1
04 18.08 В 2 н/о н/о +17.2 +14.8 86 +17 +17 1009.7 1005.1
05 18.08 штиль 0 н/о н/о +16.5 +14.5 88 +16 +16 1010.8 1006.1
06 18.08 В 1 40 км 1/0
[Ac und Ci fib]
+16.8 +15.0 89 +18 +18 1012.0 1007.3 +16.1
07 18.08 В 2 н/о н/о +19.0 +15.7 81 +21 +21 комфорт 1012.6 1008.0
08 18.08 В 1 н/о н/о +21.8 +18.0 79 +26 +26 душно 1013.2 1008.7
09 18.08 З 2 40 км 6/4 600 м
[Sc Ac und Cs]
+23.7 +19.0 75 +28 +33 душно 1013.9 1009.4
10 18.08 СЗ 5 н/о н/о +24.7 +19.3 72 +30 +30 очень
душно
1014.5 1010.0
11 18.08 СЗ 4 н/о в посл. час осадки н/о +22.2 +19.3 84 +28 +28 душно 1015.1 1010.6
12 18.08 СЗ 4 25 км 9/9 300 м
[Sc diur, vesp]
+23.9 +19.4 76 +29 +30 душно 1014.8 1010.3 0.0
13 18.08 СЗ 5 н/о н/о +22.7 +19.2 81 +29 +29 очень
душно
1015.1 1010.6
14 18.08 СЗ 6 н/о осадки н/о +20.0 +18.8 93 +23 +23 комфорт 1016.0 1011.4
15 18.08 СЗ 4 3100 м слаб. дождь 10/10 100 м
[Cu Sc]
+19.3 +18.5 95 +21 +21 комфорт 1016.6 1012.0 0.3
16 18.08 СЗ 4 н/о осадки н/о +18.8 +18.1 96 +20 +20 1017.1 1012.5
17 18.08 СЗ 5 н/о осадки н/о +18.3 +17.4 94 +19 +19 1017.9 1013.2
18 18.08 СЗ 3 18 км в посл. час дождь 10/10 300 м
[Cu Sc]
+18.0 +16.7 92 +18 +18 1018.3 1013.7 +25.2 1
19 18.08 З 3 н/о осадки н/о +17.0 +15.9 93 +17 +17 1018.9 1014.3
20 18.08 З 1 н/о в посл. час осадки н/о +16.9 +16.0 94 +18 +18 1019.7 1015.1
21 18.08 ЮВ 1 10 км слаб. дождь 10/10 300 м
[Cu Sc]
+17.0 +16.2 95 +18 +18 1020.3 1015.7 1
22 18.08 В 1 н/о в посл. час осадки н/о +16.8 +16.2 96 +18 +18 1020.6 1016.0
23 18.08 В 2 н/о н/о +16.8 +16.3 97 +17 +17 1020.8 1016.2
00 19.08 ЮВ 2 н/о в посл. час осадки н/о +16.7 +16.4 98 +17 +17 1020.8 1016.2 0.0

 

Местоположение метеостанции Бильбао (Испания): широта 43.30 долгота -2.93 высота над уровнем моря 42 м.

В архиве по умолчанию представлена погода в Бильбао за последнюю неделю. Архивные данные за месяц целиком и за предыдущие месяцы, начиная с января 2011 года, Вы можете получить, выбрав интересующий диапазон дат из раскрывающегося списка и нажав кнопку "Ввод!".


*Определитесь, кто Вы:
робот инопланетянин человек

Внимание! Время в таблицах - всемирное. Для получения местного времени необходимо прибавить поправку, которая равна 1 ч.

Смотрите также архив погоды в соседних городах и на ближайших метеорологических станциях:

Погода в Пунта Галеа (Испания) (11 км)
Погода в Гуэньесе (Испания) (18 км)
Погода в Кастро-Урдьялесе (Испания) (26 км)
Погода на Мысе Лекейтио (Испания) (35 км)
Погода в Элгойбар - Ибердрола (Испания) (43 км)
Погода в Витория-Гастейсе (Испания) (50 км)
Погода на Мысе Зумая (Испания) (55 км)
Погода в Зумаррага - Урзабалета (Испания) (55 км)
Погода в Медина-де-Помаре (Испания) (61 км)
Погода в Сан-Себастьяне (Испания) (73 км)

Пояснения к столбцам:

Ветер - указаны скорость ветра в м/с - средняя за 10 мин, порывы в срок и между сроками (в фигурных скобках) и направление, откуда дует ветер: С - северный, СВ - северо-восточный, В - восточный, ЮВ - юго-восточный, Ю - южный, ЮЗ - юго-западный, З - западный, СЗ - северо-западный.
Видимость - горизонтальная дальность видимости в метрах или километрах. При видимости от 1 до 10 км при отсутствии осадков обычно наблюдается дымка, при ухудшении видимости до 1 км и менее - туман. В сухую погоду видимость может ухудшаться дымом, пылью или мглою.
Явления - указаны атмосферные явления, наблюдавшиеся в срок или в последний час перед сроком; фигурными скобками обозначены явления, наблюдавшиеся между сроками (за 1-3 часа до срока); квадратными скобками обозначены град или гололедные отложения с указанием их диаметра в мм.
Облачность - указаны через наклонную черту общая и нижняя облачность в баллах и высота нижней границы облаков в метрах; квадратными скобками обозначены формы облаков: Ci - перистые, Cs - перисто-слоистые, Cc - перисто-кучевые, Ac - высококучевые, As - высокослоистые, Sc - слоисто-кучевые, Ns - слоисто-дождевые, Cu - кучевые, Cb - кучево-дождевые. Подробнее классификацию облаков см. в Атласе облаков (PDF).
T - Температура воздуха - температура, измеренная на высоте 2 м над землей.
Td - Температура точки росы - температура, при понижении до которой содержащийся в воздухе водяной пар достигнет насыщения.
f - Относительная влажность воздуха - влажноcть воздуха, измеренная на высоте 2 м над землей.
Te - Эффективная температура - температура, которую ощущает одетый по сезону человек в тени. Характеристика душности погоды. При расчете учитывается влияние влажности воздуха и скорости ветра на теплоощущения человека.
Tes - Эффективная температура на солнце - температура, которую ощущает человек, с поправкой на солнечный нагрев. Характеристика знойности погоды. Зависит от высоты солнца над горизонтом, облачности и скорости ветра. Ночью, в пасмурную погоду, а также при ветре 12 м/с и более поправка равна нулю.
P - Атмосферное давление - приведенное к уровню моря атмосферное давление.
Po - Атмосферное давление - измеренное на уровне метеостанции атмосферное давление.
Tmin - Минимальная температура - минимум температуры воздуха на высоте 2 м над землей.
Tmax - Максимальная температура - максимум температуры воздуха на высоте 2 м над землей.
R - Количество осадков - Количество выпавших осадков за период времени, мм. При наведении курсора мыши на число - период времени, за который выпало указанное количество осадков.
R24 - Количество осадков - Количество выпавших осадков за 24 часа, мм.
S - Снежный покров - Высота снежного покрова, см. При наведении курсора мыши на число - состояние снежного покрова и степень покрытия местности в баллах.